TimeMDT,TemperatureF,Dew PointF,Humidity,Sea Level PressureIn,VisibilityMPH,Wind Direction,Wind SpeedMPH,Gust SpeedMPH,PrecipitationIn,Events,Conditions,WindDirDegrees,DateUTC
12:15 AM,78.8,53.6,42,29.89,10.0,ESE,8.1,-,N/A,,Scattered Clouds,120,2013-09-17 06:15:00
12:35 AM,77.0,53.6,44,29.89,10.0,East,6.9,-,N/A,,Scattered Clouds,100,2013-09-17 06:35:00
12:55 AM,75.2,53.6,47,29.89,10.0,ESE,8.1,-,N/A,,Scattered Clouds,110,2013-09-17 06:55:00
1:15 AM,75.2,53.6,47,29.89,10.0,ESE,6.9,-,N/A,,Partly Cloudy,120,2013-09-17 07:15:00
1:35 AM,75.2,53.6,47,29.89,10.0,SE,6.9,-,N/A,,Scattered Clouds,130,2013-09-17 07:35:00
1:55 AM,75.2,53.6,47,29.89,10.0,Calm,Calm,-,N/A,,Scattered Clouds,0,2013-09-17 07:55:00
2:15 AM,75.2,55.4,50,29.89,10.0,South,3.5,-,N/A,,Partly Cloudy,190,2013-09-17 08:15:00
2:35 AM,75.2,55.4,50,29.88,10.0,SSE,3.5,-,N/A,,Mostly Cloudy,160,2013-09-17 08:35:00
2:55 AM,73.4,55.4,53,29.88,10.0,Calm,Calm,-,N/A,,Scattered Clouds,0,2013-09-17 08:55:00
3:15 AM,73.4,55.4,53,29.87,10.0,ESE,5.8,-,N/A,,Partly Cloudy,120,2013-09-17 09:15:00
3:35 AM,73.4,53.6,50,29.87,10.0,SE,6.9,-,N/A,,Scattered Clouds,140,2013-09-17 09:35:00
3:55 AM,73.4,53.6,50,29.87,10.0,ESE,8.1,-,N/A,,Scattered Clouds,120,2013-09-17 09:55:00
4:15 AM,73.4,53.6,50,29.87,10.0,SE,5.8,-,N/A,,Clear,130,2013-09-17 10:15:00
4:35 AM,73.4,53.6,50,29.87,10.0,ESE,4.6,-,N/A,,Mostly Cloudy,110,2013-09-17 10:35:00
4:55 AM,71.6,55.4,57,29.87,10.0,ESE,6.9,-,N/A,,Mostly Cloudy,120,2013-09-17 10:55:00
5:15 AM,73.4,53.6,50,29.86,10.0,SE,3.5,-,N/A,,Scattered Clouds,140,2013-09-17 11:15:00
5:35 AM,73.4,55.4,53,29.87,10.0,SSW,3.5,-,N/A,,Partly Cloudy,200,2013-09-17 11:35:00
5:55 AM,71.6,55.4,57,29.86,10.0,Calm,Calm,-,N/A,,Clear,0,2013-09-17 11:55:00
6:15 AM,71.6,55.4,57,29.86,10.0,Calm,Calm,-,N/A,,Clear,0,2013-09-17 12:15:00
6:35 AM,71.6,53.6,53,29.87,10.0,South,3.5,-,N/A,,Partly Cloudy,170,2013-09-17 12:35:00
6:55 AM,71.6,55.4,57,29.87,10.0,SE,3.5,-,N/A,,Partly Cloudy,140,2013-09-17 12:55:00
7:15 AM,71.6,55.4,57,29.87,10.0,Calm,Calm,-,N/A,,Scattered Clouds,0,2013-09-17 13:15:00
7:35 AM,69.8,55.4,60,29.87,10.0,Calm,Calm,-,N/A,,Scattered Clouds,0,2013-09-17 13:35:00
7:55 AM,71.6,55.4,57,29.88,10.0,Calm,Calm,-,N/A,,Mostly Cloudy,0,2013-09-17 13:55:00
8:15 AM,71.6,55.4,57,29.88,10.0,Calm,Calm,-,N/A,,Scattered Clouds,0,2013-09-17 14:15:00
8:35 AM,71.6,57.2,60,29.88,10.0,Calm,Calm,-,N/A,,Mostly Cloudy,0,2013-09-17 14:35:00
8:55 AM,73.4,55.4,53,29.88,10.0,SSE,3.5,-,N/A,,Mostly Cloudy,160,2013-09-17 14:55:00
9:15 AM,75.2,55.4,50,29.88,10.0,WNW,5.8,-,N/A,,Mostly Cloudy,290,2013-09-17 15:15:00
9:35 AM,75.2,53.6,47,29.88,10.0,Calm,Calm,-,N/A,,Overcast,0,2013-09-17 15:35:00
9:55 AM,75.2,57.2,53,29.87,10.0,Calm,Calm,-,N/A,,Overcast,0,2013-09-17 15:55:00
10:15 AM,75.2,55.4,50,29.87,10.0,SW,4.6,-,N/A,,Overcast,220,2013-09-17 16:15:00
10:35 AM,77.0,55.4,47,29.87,10.0,Calm,Calm,-,N/A,,Mostly Cloudy,0,2013-09-17 16:35:00
10:55 AM,80.6,55.4,42,29.86,10.0,Calm,Calm,-,N/A,,Scattered Clouds,0,2013-09-17 16:55:00
11:15 AM,82.4,55.4,39,29.85,10.0,WNW,5.8,-,N/A,,Clear,290,2013-09-17 17:15:00
11:35 AM,82.4,55.4,39,29.85,10.0,Calm,Calm,-,N/A,,Partly Cloudy,0,2013-09-17 17:35:00
11:55 AM,84.2,55.4,37,29.85,10.0,NW,3.5,-,N/A,,Scattered Clouds,310,2013-09-17 17:55:00
12:15 PM,86.0,55.4,35,29.84,10.0,Calm,Calm,-,N/A,,Partly Cloudy,0,2013-09-17 18:15:00
12:35 PM,87.8,51.8,29,29.83,10.0,SSW,10.4,-,N/A,,Clear,210,2013-09-17 18:35:00
12:55 PM,89.6,51.8,27,29.82,10.0,SSW,6.9,17.3,N/A,,Clear,200,2013-09-17 18:55:00
1:15 PM,93.2,42.8,17,29.81,5.0,SSW,24.2,36.8,N/A,,Clear,210,2013-09-17 19:15:00
1:35 PM,95.0,42.8,16,29.81,10.0,SSW,25.3,33.4,N/A,,Clear,200,2013-09-17 19:35:00
1:55 PM,93.2,42.8,17,29.79,10.0,SW,26.5,33.4,N/A,,Clear,230,2013-09-17 19:55:00
2:15 PM,95.0,42.8,16,29.78,10.0,SSW,28.8,34.5,N/A,,Clear,200,2013-09-17 20:15:00
2:35 PM,95.0,42.8,16,29.77,10.0,SSW,20.7,26.5,N/A,,Clear,200,2013-09-17 20:35:00
2:55 PM,93.2,42.8,17,29.76,10.0,South,24.2,34.5,N/A,,Clear,190,2013-09-17 20:55:00
3:15 PM,95.0,42.8,16,29.74,10.0,South,21.9,29.9,N/A,,Partly Cloudy,180,2013-09-17 21:15:00
3:35 PM,93.2,44.6,19,29.73,10.0,SSW,20.7,28.8,N/A,,Partly Cloudy,210,2013-09-17 21:35:00
3:55 PM,95.0,42.8,16,29.72,10.0,SW,23.0,28.8,N/A,,Partly Cloudy,220,2013-09-17 21:55:00
4:15 PM,96.8,42.8,16,29.71,10.0,SSW,26.5,36.8,N/A,,Partly Cloudy,200,2013-09-17 22:15:00
4:35 PM,96.8,42.8,16,29.70,10.0,SSW,29.9,41.4,N/A,,Partly Cloudy,210,2013-09-17 22:35:00
4:55 PM,96.8,42.8,16,29.70,10.0,SSW,23.0,33.4,N/A,,Clear,210,2013-09-17 22:55:00
5:15 PM,96.8,44.6,17,29.69,10.0,SW,29.9,-,N/A,,Clear,230,2013-09-17 23:15:00
5:35 PM,95.0,42.8,16,29.69,10.0,SSW,23.0,34.5,N/A,,Clear,210,2013-09-17 23:35:00
5:55 PM,95.0,44.6,18,29.69,10.0,SSW,24.2,33.4,N/A,,Clear,210,2013-09-17 23:55:00
6:15 PM,93.2,44.6,19,29.68,10.0,SSW,24.2,29.9,N/A,,Clear,210,2013-09-18 00:15:00
6:35 PM,93.2,42.8,17,29.68,10.0,SW,18.4,-,N/A,,Clear,220,2013-09-18 00:35:00
6:55 PM,93.2,42.8,17,29.68,10.0,SW,24.2,29.9,N/A,,Clear,220,2013-09-18 00:55:00
7:15 PM,91.4,42.8,18,29.68,10.0,SSW,26.5,-,N/A,,Clear,210,2013-09-18 01:15:00
7:35 PM,89.6,42.8,20,29.69,10.0,SSW,15.0,20.7,N/A,,Clear,210,2013-09-18 01:35:00
7:55 PM,89.6,42.8,20,29.69,10.0,SW,10.4,-,N/A,,Clear,220,2013-09-18 01:55:00
8:15 PM,87.8,44.6,22,29.70,10.0,SSW,10.4,18.4,N/A,,Clear,200,2013-09-18 02:15:00
8:35 PM,86.0,44.6,23,29.70,10.0,South,9.2,-,N/A,,Clear,180,2013-09-18 02:35:00
8:55 PM,84.2,44.6,25,29.70,10.0,South,9.2,-,N/A,,Clear,170,2013-09-18 02:55:00
9:15 PM,84.2,44.6,25,29.71,10.0,South,6.9,-,N/A,,Clear,180,2013-09-18 03:15:00
9:35 PM,82.4,44.6,26,29.72,10.0,South,9.2,-,N/A,,Clear,170,2013-09-18 03:35:00
9:55 PM,82.4,44.6,26,29.72,10.0,South,9.2,-,N/A,,Clear,180,2013-09-18 03:55:00
10:15 PM,82.4,44.6,26,29.73,10.0,SSE,6.9,-,N/A,,Clear,160,2013-09-18 04:15:00
10:35 PM,78.8,46.4,32,29.73,10.0,SSE,5.8,-,N/A,,Clear,150,2013-09-18 04:35:00
10:55 PM,75.2,48.2,38,29.74,10.0,SSE,6.9,-,N/A,,Clear,160,2013-09-18 04:55:00
11:15 PM,75.2,46.4,36,29.73,10.0,SSE,5.8,-,N/A,,Clear,150,2013-09-18 05:15:00
11:35 PM,75.2,46.4,36,29.73,10.0,SSE,8.1,-,N/A,,Clear,150,2013-09-18 05:35:00
11:55 PM,75.2,46.4,36,29.73,10.0,SSE,10.4,-,N/A,,Clear,150,2013-09-18 05:55:00